Fairbanks Eiels, AK

9:18 PM AKST on December 09, 2019 (GMT -0900)
Eielson Air Force Base

Weather History for PAEI - October, 2019

Change the Weather History Date:

Friday, October 11, 2019

  Actual Average Record
Temperature  
Mean Temperature 32 °F -  
Max Temperature 34 °F 35 °F 62 °F (1969)
Min Temperature 31 °F 22 °F -6 °F (1961)
Degree Days  
Heating Degree Days 32    
Moisture  
Dew Point 30 °F    
Average Humidity 92    
Maximum Humidity 93    
Minimum Humidity 87    
Precipitation  
Precipitation 0.05 in - - ()
Snow  
Snow 0.00 in - - ()
Snow Depth 3.00 in    
Sea Level Pressure  
Sea Level Pressure 29.73 in    
Wind  
Wind Speed 9 mph (WNW)    
Max Wind Speed 14 mph    
Max Gust Speed 17 mph    
Visibility 4 miles    
Events Rain , Snow    
Averages and records for this station are not official NWS values.
T = Trace of Precipitation, MM = Missing Value Source: NWS Daily Summary

Daily Weather History Graph

Daily Weather History Graph

Search for Another Location

Airport or City:

Astronomy

Oct. 11, 2019 Rise Set
Actual Time 8:27 AM AKDT 6:40 PM AKDT
Civil Twilight 7:38 AM AKDT 7:29 PM AKDT
Nautical Twilight 6:42 AM AKDT 8:25 PM AKDT
Astronomical Twilight 5:43 AM AKDT 9:24 PM AKDT
Moon 7:14 PM AKDT (10/11) 5:03 AM AKDT (10/11)
Length of Visible Light 11h 51m
Length of Day
10h 12m
Waxing Gibbous, 96% of the Moon is Illuminated
Oct 11
Waxing Gibbous
Oct 13
Full
Oct 21
Last Quarter
Oct 27
New
Nov 4
First Quarter

Hourly Weather History & Observations

Time (AKDT) Temp. Windchill Dew Point Humidity Pressure Visibility Wind Dir Wind Speed Gust Speed Precip Events Conditions
12:11 AM 33.8 °F 26.4 °F 32.0 °F 93% 29.72 in 10.0 mi NNW 9.2 mph - N/A Rain Light Rain
12:26 AM 33.8 °F 25.8 °F 32.0 °F 93% 29.71 in 10.0 mi NNW 10.4 mph - N/A Rain Light Rain
12:56 AM 34.2 °F 26.8 °F 32.4 °F 93% 29.71 in 7.0 mi NNW 9.2 mph - 0.01 in Rain Light Rain
1:11 AM 33.8 °F 25.8 °F 32.0 °F 93% 29.70 in 10.0 mi NNW 10.4 mph - N/A Rain Light Rain
1:56 AM 34.2 °F 27.5 °F 32.4 °F 93% 29.70 in 10.0 mi NW 8.1 mph - 0.00 in Rain Light Rain
2:26 AM 33.8 °F 27.0 °F 32.0 °F 93% 29.69 in 10.0 mi NW 8.1 mph - N/A   Mostly Cloudy
2:56 AM 34.0 °F 27.2 °F 31.8 °F 92% 29.69 in 10.0 mi NW 8.1 mph - 0.01 in Rain Light Rain
3:11 AM 33.8 °F 26.4 °F 32.0 °F 93% 29.68 in 10.0 mi WNW 9.2 mph - N/A Rain Light Rain
3:41 AM 33.8 °F 27.7 °F 32.0 °F 93% 29.68 in 10.0 mi WNW 6.9 mph - N/A Rain Light Rain
3:56 AM 33.4 °F 26.6 °F 31.3 °F 92% 29.68 in 7.0 mi WNW 8.1 mph - 0.02 in Snow Light Snow
4:44 AM 32.0 °F 27.5 °F 30.2 °F 93% 29.67 in 3.0 mi WNW 4.6 mph - N/A Snow Light Snow
5:56 AM 32.5 °F 27.1 °F 30.7 °F 93% 29.66 in 7.0 mi WNW 5.8 mph - 0.01 in Snow Light Snow
6:26 AM 32.0 °F 24.2 °F 30.2 °F 93% 29.65 in 4.0 mi WNW 9.2 mph - N/A Snow Light Snow
6:41 AM 33.8 °F 26.4 °F 32.0 °F 93% 29.66 in 4.0 mi NW 9.2 mph 16.1 mph N/A Snow Light Snow
6:56 AM 32.9 °F 25.3 °F 30.7 °F 92% 29.66 in 4.0 mi NW 9.2 mph - 0.00 in Snow Light Snow
7:46 AM 32.0 °F 24.2 °F 30.2 °F 93% 29.66 in 4.0 mi WNW 9.2 mph - N/A Snow Light Snow
7:56 AM 32.5 °F 25.5 °F 30.4 °F 92% 29.66 in 5.0 mi WNW 8.1 mph - 0.00 in Snow Light Snow
8:11 AM 32.0 °F 24.8 °F 30.2 °F 93% 29.63 in 4.0 mi West 8.1 mph - N/A Snow Light Snow
8:26 AM 32.0 °F 23.0 °F 30.2 °F 93% 29.66 in 4.0 mi NW 11.5 mph 17.3 mph N/A Snow Light Snow
8:42 AM 32.0 °F 23.6 °F 30.2 °F 93% 29.66 in 4.0 mi WNW 10.4 mph - N/A Snow Light Snow
8:56 AM 32.5 °F 23.7 °F 30.4 °F 92% 29.66 in 4.0 mi WNW 11.5 mph - 0.00 in Snow Light Snow
9:28 AM 32.0 °F 23.6 °F 30.2 °F 93% 29.65 in 3.0 mi WNW 10.4 mph - N/A Snow Light Snow
9:43 AM 32.0 °F 24.8 °F 30.2 °F 93% 29.65 in 4.0 mi West 8.1 mph - N/A Snow Light Snow
9:56 AM 32.2 °F 24.4 °F 30.2 °F 92% 29.65 in 0.5 mi West 9.2 mph - 0.00 in Snow Light Snow
10:11 AM 32.0 °F 24.2 °F 30.2 °F 93% 29.65 in 2.8 mi West 9.2 mph - N/A Snow Light Snow
10:15 AM 32.0 °F 24.8 °F 30.2 °F 93% 29.65 in 0.5 mi West 8.1 mph - N/A Snow Light Snow
10:34 AM 32.0 °F 23.6 °F 30.2 °F 93% 29.66 in 0.5 mi West 10.4 mph - N/A Snow Light Snow
10:53 AM 32.0 °F 23.0 °F 30.2 °F 93% 29.66 in 1.1 mi West 11.5 mph 17.3 mph N/A Snow Light Snow
10:56 AM 31.8 °F 22.8 °F 29.8 °F 92% 29.66 in 1.0 mi WNW 11.5 mph 17.3 mph 0.00 in Snow Light Snow
11:11 AM 32.0 °F 22.5 °F 30.2 °F 93% 29.66 in 1.0 mi West 12.7 mph 17.3 mph N/A Snow Light Snow
11:26 AM 32.0 °F 22.1 °F 30.2 °F 93% 29.66 in 1.2 mi West 13.8 mph - N/A Snow Light Snow
11:56 AM 31.8 °F 23.3 °F 29.8 °F 92% 29.67 in 1.0 mi West 10.4 mph - 0.00 in Snow Light Snow
12:35 PM 32.0 °F 24.8 °F 30.2 °F 93% 29.67 in 0.5 mi West 8.1 mph - N/A Snow Light Snow
12:56 PM 31.8 °F 24.6 °F 29.8 °F 92% 29.68 in 0.8 mi West 8.1 mph - 0.00 in Snow Light Snow
1:03 PM 32.0 °F 24.8 °F 30.2 °F 93% 29.68 in 1.0 mi West 8.1 mph - N/A Snow Light Snow
1:48 PM 32.0 °F 24.8 °F 30.2 °F 93% 29.69 in 1.0 mi West 8.1 mph - N/A Snow Light Snow
1:56 PM 31.8 °F 24.6 °F 29.8 °F 92% 29.69 in 1.0 mi West 8.1 mph - 0.00 in Snow Light Snow
2:11 PM 32.0 °F 23.0 °F 30.2 °F 93% 29.69 in 0.5 mi West 11.5 mph - N/A Snow Light Snow
2:27 PM 32.0 °F 23.6 °F 30.2 °F 93% 29.70 in 1.0 mi West 10.4 mph - N/A Snow Light Snow
2:42 PM 32.0 °F 23.6 °F 30.2 °F 93% 29.70 in 1.5 mi West 10.4 mph - N/A Snow Light Snow
2:56 PM 31.6 °F 23.7 °F 29.3 °F 91% 29.71 in 1.4 mi West 9.2 mph - 0.00 in Snow Light Snow
3:29 PM 32.0 °F 23.6 °F 30.2 °F 93% 29.71 in 2.0 mi West 10.4 mph - N/A Snow Light Snow
3:44 PM 32.0 °F 24.2 °F 30.2 °F 93% 29.72 in 1.8 mi West 9.2 mph - N/A Snow Light Snow
3:56 PM 31.8 °F 23.9 °F 29.5 °F 91% 29.72 in 1.5 mi West 9.2 mph - 0.00 in Snow Light Snow
4:26 PM 32.0 °F 24.2 °F 30.2 °F 93% 29.70 in 2.5 mi West 9.2 mph - N/A Snow Light Snow
4:46 PM 32.0 °F 24.2 °F 30.2 °F 93% 29.74 in 2.8 mi West 9.2 mph - N/A Snow Light Snow
4:56 PM 32.0 °F 24.2 °F 29.7 °F 91% 29.74 in 2.0 mi West 9.2 mph - 0.00 in Snow Light Snow
5:11 PM 32.0 °F 24.2 °F 30.2 °F 93% 29.74 in 2.5 mi West 9.2 mph - N/A Snow Light Snow
5:56 PM 31.8 °F 25.4 °F 29.5 °F 91% 29.76 in 1.6 mi West 6.9 mph - 0.00 in Snow Light Snow
6:18 PM 32.0 °F 24.2 °F 30.2 °F 93% 29.77 in 1.6 mi West 9.2 mph - N/A Snow Light Snow
6:33 PM 32.0 °F 23.6 °F 30.2 °F 93% 29.78 in 1.1 mi West 10.4 mph - N/A Snow Light Snow
6:56 PM 31.8 °F 25.4 °F 29.8 °F 92% 29.79 in 1.2 mi West 6.9 mph - 0.00 in Snow Light Snow
7:11 PM 32.0 °F 24.8 °F 30.2 °F 93% 29.79 in 2.2 mi West 8.1 mph - N/A Snow Light Snow
7:41 PM 32.0 °F 23.6 °F 30.2 °F 93% 29.81 in 3.0 mi West 10.4 mph - N/A Snow Light Snow
7:56 PM 31.6 °F 24.4 °F 29.7 °F 92% 29.81 in 3.0 mi West 8.1 mph - 0.00 in Snow Light Snow
8:11 PM 32.0 °F 24.2 °F 30.2 °F 93% 29.82 in 3.0 mi West 9.2 mph - N/A Snow Light Snow
8:26 PM 32.0 °F 23.6 °F 30.2 °F 93% 29.82 in 3.0 mi West 10.4 mph - N/A Snow Light Snow
8:41 PM 32.0 °F 24.2 °F 30.2 °F 93% 29.83 in 3.0 mi WNW 9.2 mph - N/A Snow Light Snow
8:56 PM 31.6 °F 23.1 °F 29.7 °F 92% 29.84 in 4.0 mi West 10.4 mph - 0.00 in Snow Light Snow
9:15 PM 32.0 °F 24.2 °F 30.2 °F 93% 29.84 in 5.0 mi West 9.2 mph - N/A Snow Light Snow
9:30 PM 32.0 °F 24.8 °F 30.2 °F 93% 29.85 in 5.0 mi West 8.1 mph - N/A Snow Light Snow
9:38 PM 32.0 °F 24.2 °F 30.2 °F 93% 29.85 in 10.0 mi West 9.2 mph - N/A Snow Light Snow
9:56 PM 31.3 °F 22.7 °F 29.3 °F 92% 29.86 in 10.0 mi West 10.4 mph - 0.00 in Snow Light Snow
10:18 PM 32.0 °F 24.8 °F 28.4 °F 87% 29.86 in 10.0 mi West 8.1 mph - N/A   Overcast
10:48 PM 32.0 °F 24.2 °F 28.4 °F 87% 29.87 in 10.0 mi West 9.2 mph - N/A   Overcast
10:56 PM 31.1 °F 23.1 °F 28.8 °F 91% 29.88 in 10.0 mi West 9.2 mph - 0.00 in   Overcast
11:11 PM 32.0 °F 24.2 °F 28.4 °F 87% 29.88 in 10.0 mi West 9.2 mph - N/A   Overcast
11:41 PM 32.0 °F 24.2 °F 28.4 °F 87% 29.87 in 10.0 mi West 9.2 mph - N/A   Overcast
11:56 PM 31.3 °F 23.9 °F 28.9 °F 91% 29.90 in 10.0 mi West 8.1 mph - N/A   Overcast